CAPE
1 1 1 0 1 2 0 0 0 0 0 0 0 0 0 0 0 0 0 0 0 0 0 0 0 0 0 0 0 0 0 0 0 0 0 0 0 0 0 0 0 0 0 0 0 0 0
1 0 1 1 2 2 0 0 0 0 0 0 0 0 0 0 0 0 0 0 0 0 0 0 0 0 0 0 0 0 0 0 0 0 0 0 0 0 0 0 0 0 0 0 0 0 0
1 1 1 3 1 2 0 0 0 0 0 0 0 0 0 0 0 0 0 0 0 0 0 0 0 0 0 0 0 0 0 0 0 0 0 0 0 0 0 0 0 0 0 0 0 0 0
1 1 1 1 2 1 0 0 0 0 0 0 0 0 0 0 0 0 0 0 0 0 0 0 0 0 0 0 0 0 0 0 0 0 0 0 0 0 0 0 0 0 0 0 0 0 0
3 1 1 3 2 1 0 0 0 0 0 0 0 0 0 0 0 0 0 0 0 0 0 0 0 0 0 0 0 0 0 0 0 0 0 0 0 0 0 0 0 0 0 0 0 0 0
4 0 3 3 2 1 0 0 0 0 0 0 0 0 0 0 0 0 0 0 0 0 0 0 0 0 0 0 0 0 0 0 0 0 0 0 0 0 0 0 0 0 0 0 0 0 0
3 3 4 2 1 1 0 0 0 0 0 0 0 0 0 0 0 0 0 0 0 0 0 0 0 0 0 0 0 0 0 0 0 0 0 0 0 0 0 0 0 0 0 0 0 0 0
9 4 1 3 2 0 0 0 0 0 0 0 0 0 0 0 0 0 0 0 0 0 0 0 0 0 0 0 0 0 0 0 0 0 0 0 0 0 0 0 0 0 0 0 0 0 0
5 6 1 3 2 2 1 0 0 0 0 0 0 0 0 0 0 0 0 0 0 0 0 0 0 0 0 0 0 0 0 0 0 0 0 0 0 0 0 0 0 0 0 0 0 0 0
4 3 3 2 3 2 1 0 0 0 0 0 0 0 0 0 0 0 0 0 0 0 0 0 0 0 0 0 0 0 0 0 0 0 0 0 0 0 0 0 0 0 0 0 0 0 0
0 2 2 1 1 0 0 0 0 0 0 0 0 0 0 0 0 0 0 0 0 0 0 0 0 0 0 0 0 0 0 0 0 0 0 0 0 0 0 0 0 0 0 0 0 0 0
3 12 5 4 2 1 0 0 0 0 0 0 0 0 0 0 0 0 0 0 0 0 0 0 0 0 0 0 0 0 0 0 0 0 0 0 0 0 0 0 0 0 0 0 0 0 0
5 7 11 5 1 2 1 0 0 0 0 0 0 0 0 0 0 0 0 0 0 0 0 0 0 0 0 0 0 0 0 0 0 0 0 0 0 0 0 0 0 0 0 0 0 0 0
2 4 7 1 0 3 0 0 0 0 0 0 0 0 0 0 0 0 0 0 0 0 0 0 0 0 0 0 0 0 0 0 0 0 0 0 0 0 0 0 0 0 0 0 0 0 0
2 14 1 2 7 0 0 0 0 0 0 0 0 0 0 0 0 0 0 0 0 0 0 0 0 0 0 0 0 0 0 0 0 0 0 0 0 0 0 0 0 0 0 0 0 0 0
2 10 0 8 1 0 0 0 0 0 0 0 0 0 0 0 0 0 0 0 0 0 0 0 0 0 0 0 0 0 0 0 0 0 0 0 0 0 0 0 0 0 0 0 0 0 0
2 14 0 7 0 0 0 0 0 0 0 0 0 0 0 0 0 0 0 0 0 0 0 0 0 0 0 0 0 0 0 0 0 0 0 0 0 0 0 0 0 0 0 0 0 0 0
8 8 8 7 1 0 0 0 0 0 0 0 0 0 0 0 0 0 0 0 0 0 0 0 0 0 0 0 0 0 0 0 0 0 0 0 0 0 0 0 0 0 0 0 0 0 0
1 1 14 6 2 3 0 0 0 0 0 0 0 0 0 0 0 0 0 0 0 0 0 0 0 0 0 0 0 0 0 0 0 0 0 0 0 0 0 0 0 0 0 0 0 0 0
3 3 7 5 6 2 2 1 0 0 0 0 0 0 0 0 0 0 0 0 0 0 0 0 0 0 0 0 0 0 0 0 0 0 0 0 0 0 0 0 0 0 0 0 0 0 0
3 5 6 6 1 3 2 2 0 0 0 0 0 0 0 0 0 0 0 0 0 0 0 0 0 0 0 0 0 0 0 0 0 0 0 0 0 0 0 0 0 0 4 0 0 0 8
7 1 4 3 1 1 2 3 0 0 0 0 0 0 0 0 0 0 0 0 0 0 0 0 0 0 0 0 0 0 0 0 0 0 0 0 0 0 0 0 0 0 0 1 31 1 0
9 6 3 4 2 5 4 3 1 0 0 0 0 0 0 0 0 0 0 0 0 0 0 0 0 0 0 0 0 0 0 0 0 0 0 0 1 0 0 0 0 0 7 28 84 60 53
4 3 4 14 16 6 3 2 3 0 0 0 0 0 0 0 0 0 0 0 0 0 0 0 0 0 0 0 0 0 0 0 0 0 0 0 6 0 0 0 0 0 1 50 171 353 373
7 5 4 13 5 5 1 1 4 1 0 0 0 0 0 0 0 0 0 0 0 0 0 0 0 0 0 0 0 0 0 0 0 0 0 0 1 53 0 0 0 19 212 398 206 173 359
12 9 3 2 11 3 1 1 2 2 0 0 0 0 0 0 0 0 0 0 0 0 0 0 0 0 0 0 0 0 0 0 0 0 0 0 0 16 7 0 0 0 345 651 400 25 179
4 7 2 6 11 3 1 1 0 1 0 0 0 0 0 0 0 0 0 0 0 0 0 0 0 0 0 0 0 0 0 0 0 0 0 0 0 0 4 28 0 2 456 328 35 16 270
2 6 3 8 6 2 3 1 0 1 2 0 0 0 0 0 0 0 0 0 0 0 0 0 0 0 0 0 0 0 0 0 0 0 0 0 0 0 0 0 0 180 400 92 248 799 526
7 6 7 9 10 10 7 3 2 4 1 0 0 0 0 0 0 0 0 0 0 0 0 0 0 0 0 0 0 0 2 1 0 0 0 0 0 0 0 0 46 376 506 681 752 751 322
CIN
-0 -0 -0 -0 -0 -0 -0 -0 -0 -0 -0 -0 -0 -0 -0 -0 -0 -0 -0 -0 -0 -0 -0 -0 -0 -0 -0 -0 -0 -0 -0 -0 -0 -0 -0 -0 -0 -0 -0 -0 -0 -0 -0 -0 -0 -0 -0
-0 -0 -0 -0 -0 -0 -0 -0 -0 -0 -0 -0 -0 -0 -0 -0 -0 -0 -0 -0 -0 -0 -0 -0 -0 -0 -0 -0 -0 -0 -0 -0 -0 -0 -0 -0 -0 -0 -0 -0 -0 -0 -0 -0 -0 -0 -0
-0 -1 -0 -0 -0 -0 -0 -0 -0 -0 -0 -0 -0 -0 -0 -0 -0 -0 -0 -0 -0 -0 -0 -0 -0 -0 -0 -0 -0 -0 -0 -0 -0 -0 -0 -0 -0 -0 -0 -0 -0 -0 -0 -0 -0 -0 -0
-0 -0 -0 -0 -0 -0 -0 -0 -0 -0 -0 -0 -0 -0 -0 -0 -0 -0 -0 -0 -0 -0 -0 -0 -0 -0 -0 -0 -0 -0 -0 -0 -0 -0 -0 -0 -0 -0 -0 -0 -0 -0 -0 -0 -0 -0 -0
-0 -0 -0 -0 -0 -0 -0 -0 -0 -0 -0 -0 -0 -0 -0 -0 -0 -0 -0 -0 -0 -0 -0 -0 -0 -0 -0 -0 -0 -0 -0 -0 -0 -0 -0 -0 -0 -0 -0 -0 -0 -0 -0 -0 -0 -0 -0
-0 -0 -0 -0 -0 -0 -0 -0 -0 -0 -0 -0 -0 -0 -0 -0 -0 -0 -0 -0 -0 -0 -0 -0 -0 -0 -0 -0 -0 -0 -0 -0 -0 -0 -0 -0 -0 -0 -0 -0 -0 -0 -0 -0 -0 -0 -0
-1 -0 -0 -0 -0 -0 -0 -0 -0 -0 -0 -0 -0 -0 -0 -0 -0 -0 -0 -0 -0 -0 -0 -0 -0 -0 -0 -0 -0 -0 -0 -0 -0 -0 -0 -0 -0 -0 -0 -0 -0 -0 -0 -0 -0 -0 -0
-0 -0 -0 -0 -0 -0 -0 -0 -0 -0 -0 -0 -0 -0 -0 -0 -0 -0 -0 -0 -0 -0 -0 -0 -0 -0 -0 -0 -0 -0 -0 -0 -0 -0 -0 -0 -0 -0 -0 -0 -0 -0 -0 -0 -0 -0 -0
-0 -0 -1 -0 -0 -0 -0 -0 -0 -0 -0 -0 -0 -0 -0 -0 -0 -0 -0 -0 -0 -0 -0 -0 -0 -0 -0 -0 -0 -0 -0 -0 -0 -0 -0 -0 -0 -0 -0 -0 -0 -0 -0 -0 -0 -0 -0
-0 -0 -0 -0 -0 -0 -0 -0 -0 -0 -0 -0 -0 -0 -0 -0 -0 -0 -0 -0 -0 -0 -0 -0 -0 -0 -0 -0 -0 -0 -0 -0 -0 -0 -0 -0 -0 -0 -0 -0 -0 -0 -0 -0 -0 -0 -0
-0 -0 -0 -0 -0 -0 -0 -0 -0 -0 -0 -0 -0 -0 -0 -0 -0 -0 -0 -0 -0 -0 -0 -0 -0 -0 -0 -0 -0 -0 -0 -0 -0 -0 -0 -0 -0 -0 -0 -0 -0 -0 -0 -0 -0 -0 -0
-0 -0 -0 -0 -0 -0 -0 -0 -0 -0 -0 -0 -0 -0 -0 -0 -0 -0 -0 -0 -0 -0 -0 -0 -0 -0 -0 -0 -0 -0 -0 -0 -0 -0 -0 -0 -0 -0 -0 -0 -0 -0 -0 -0 -0 -0 -0
-0 -0 -0 -0 -0 -0 -0 -0 -0 -0 -0 -0 -0 -0 -0 -0 -0 -0 -0 -0 -0 -0 -0 -0 -0 -0 -0 -0 -0 -0 -0 -0 -0 -0 -0 -0 -0 -0 -0 -0 -0 -0 -0 -0 -0 -0 -0
-0 -0 -0 -0 -0 -0 -0 -0 -0 -0 -0 -0 -0 -0 -0 -0 -0 -0 -0 -0 -0 -0 -0 -0 -0 -0 -0 -0 -0 -0 -0 -0 -0 -0 -0 -0 -0 -0 -0 -0 -0 -0 -0 -0 -0 -0 -0
-0 -0 -0 -0 -0 -0 -0 -0 -0 -0 -0 -0 -0 -0 -0 -0 -0 -0 -0 -0 -0 -0 -0 -0 -0 -0 -0 -0 -0 -0 -0 -0 -0 -0 -0 -0 -0 -0 -0 -0 -0 -0 -0 -0 -0 -0 -0
-0 -0 -0 -0 -0 -0 -0 -0 -0 -0 -0 -0 -0 -0 -0 -0 -0 -0 -0 -0 -0 -0 -0 -0 -0 -0 -0 -0 -0 -0 -0 -0 -0 -0 -0 -0 -0 -0 -0 -0 -0 -0 -0 -0 -0 -0 -0
-0 -0 -0 -1 -0 -0 -0 -0 -0 -0 -0 -0 -0 -0 -0 -0 -0 -0 -0 -0 -0 -0 -0 -0 -0 -0 -0 -0 -0 -0 -0 -0 -0 -0 -0 -0 -0 -0 -0 -0 -0 -0 -0 -0 -0 -0 -0
-0 -0 -0 -0 -0 -0 -0 -0 -0 -0 -0 -0 -0 -0 -0 -0 -0 -0 -0 -0 -0 -0 -0 -0 -0 -0 -0 -0 -0 -0 -0 -0 -0 -0 -0 -0 -0 -0 -0 -0 -0 -0 -0 -0 -0 -0 -0
-0 -0 -0 -0 -0 -0 -0 -0 -0 -0 -0 -0 -0 -0 -0 -0 -0 -0 -0 -0 -0 -0 -0 -0 -0 -0 -0 -0 -0 -0 -0 -0 -0 -0 -0 -0 -0 -0 -0 -0 -0 -0 -0 -0 -0 -0 -0
-0 -0 -0 -0 -0 -0 -0 -0 -0 -0 -0 -0 -0 -0 -0 -0 -0 -0 -0 -0 -0 -0 -0 -0 -0 -0 -0 -0 -0 -0 -0 -0 -0 -0 -0 -0 -0 -0 -0 -0 -0 -0 -0 -0 -0 -0 -0
-0 -0 -0 -0 -1 -0 -0 -0 -0 -0 -0 -0 -0 -0 -0 -0 -0 -0 -0 -0 -0 -0 -0 -0 -0 -0 -0 -0 -0 -0 -0 -0 -0 -0 -0 -0 -0 -0 -0 -0 -0 -0 -49 -0 -0 -0 -37
-0 -0 -0 -0 -0 -0 -0 -0 -0 -0 -0 -0 -0 -0 -0 -0 -0 -0 -0 -0 -0 -0 -0 -0 -0 -0 -0 -0 -0 -0 -0 -0 -0 -0 -0 -0 -0 -0 -0 -0 -0 -0 -0 -24 -91 -73 -0
-0 -0 -0 -1 -0 -0 -0 -0 -0 -0 -0 -0 -0 -0 -0 -0 -0 -0 -0 -0 -0 -0 -0 -0 -0 -0 -0 -0 -0 -0 -0 -0 -0 -0 -0 -0 -14 -0 -0 -0 -0 -0 -69 -63 -47 -66 -64
-0 -0 -0 -0 -0 -0 -0 -0 -0 -0 -0 -0 -0 -0 -0 -0 -0 -0 -0 -0 -0 -0 -0 -0 -0 -0 -0 -0 -0 -0 -0 -0 -0 -0 -0 -0 -121 -0 -0 -0 -0 -0 -25 -135 -57 -51 -75
-0 -0 -0 -0 -0 -0 -0 -0 -0 -0 -0 -0 -0 -0 -0 -0 -0 -0 -0 -0 -0 -0 -0 -0 -0 -0 -0 -0 -0 -0 -0 -0 -0 -0 -0 -0 -11 -75 -0 -0 -0 -78 -94 -88 -57 -38 -108
-0 -0 -0 -0 -0 -0 -0 -0 -0 -0 -0 -0 -0 -0 -0 -0 -0 -0 -0 -0 -0 -0 -0 -0 -0 -0 -0 -0 -0 -0 -0 -0 -0 -0 -0 -0 -0 -67 -95 -0 -0 -0 -166 -271 -204 -51 -145
-0 -0 -0 -0 -1 -0 -0 -0 -0 -0 -0 -0 -0 -0 -0 -0 -0 -0 -0 -0 -0 -0 -0 -0 -0 -0 -0 -0 -0 -0 -0 -0 -0 -0 -0 -0 -0 -0 -53 -55 -0 -68 -216 -313 -49 -47 -142
-0 -0 -0 -0 -0 -0 -0 -0 -0 -0 -0 -0 -0 -0 -0 -0 -0 -0 -0 -0 -0 -0 -0 -0 -0 -0 -0 -0 -0 -0 -0 -0 -0 -0 -0 -0 -0 -0 -0 -0 -0 -274 -153 -58 -131 -205 -194
-0 -0 -0 -1 -0 -0 -0 -0 -0 -0 -0 -0 -0 -0 -0 -0 -0 -0 -0 -0 -0 -0 -0 -0 -0 -0 -0 -0 -0 -0 -58 -16 -0 -0 -0 -0 -0 -0 -0 -0 -146 -257 -248 -277 -292 -222 -284
Wind_Speed
19 19 20 20 20 21 21 21 21 22 22 23 23 24 24 24 24 25 25 25 25 24 23 22 21 19 16 16 15 15 9 8 8 8 8 10 9 10 11 12 16 10 6 13 12 10 7
20 20 20 20 21 21 22 22 23 23 24 24 25 25 26 26 27 27 27 27 27 26 25 23 20 18 16 16 15 10 9 8 8 7 6 8 12 16 19 14 13 17 23 20 10 5 15
20 20 21 21 22 22 22 23 24 24 25 26 26 27 27 28 28 29 29 29 29 28 25 21 19 17 17 18 14 8 8 8 9 6 6 12 15 18 19 19 17 21 23 24 23 19 15
21 21 21 22 22 23 23 24 24 25 26 27 27 28 29 29 30 30 30 30 29 26 20 17 17 16 18 17 10 7 9 10 11 10 13 16 17 18 19 20 19 17 16 19 16 22 19
21 22 22 22 22 23 24 24 25 26 27 28 28 29 30 30 31 31 31 30 24 19 15 15 17 16 18 13 11 8 8 10 9 10 16 19 17 16 18 18 18 18 12 16 21 19 18
22 22 22 23 23 23 24 25 26 27 28 28 29 30 30 31 31 31 31 24 20 19 18 18 18 18 16 14 12 7 8 6 10 9 14 14 15 16 16 14 15 13 12 13 16 18 18
22 22 23 24 23 23 24 25 26 27 28 29 29 30 31 31 31 29 26 21 22 21 21 21 17 17 17 17 11 10 8 6 11 12 12 15 15 12 14 12 14 17 16 15 14 19 18
23 23 23 24 23 24 25 25 26 27 28 29 29 30 30 30 30 26 19 17 17 22 25 26 29 27 26 17 16 11 5 9 13 14 13 16 18 19 17 16 17 17 19 20 21 20 18
24 24 24 24 24 25 25 26 27 28 28 29 29 29 30 30 28 19 19 17 21 17 23 25 21 21 22 11 17 12 1 10 12 14 14 15 16 9 16 18 15 17 17 18 18 21 17
24 25 25 25 25 26 27 27 28 29 29 29 29 29 29 29 19 21 19 22 23 16 23 22 19 19 14 11 18 11 3 10 14 14 14 19 20 20 19 19 15 18 14 19 21 19 20
25 25 26 26 27 27 28 29 29 29 30 30 29 29 28 24 24 20 20 25 20 17 24 18 18 16 12 10 12 14 11 13 12 12 13 17 17 15 17 17 14 17 22 23 20 17 19
25 26 26 27 28 28 29 30 30 31 31 32 31 30 28 21 23 22 23 23 16 22 26 18 15 15 12 17 15 12 11 14 15 18 21 23 21 21 20 21 21 27 20 21 18 18 20
26 26 26 27 28 29 30 31 32 32 33 34 34 32 28 22 21 19 23 16 22 25 21 21 18 19 16 16 17 15 12 13 17 20 25 25 27 24 23 26 20 19 20 23 21 20 19
27 27 28 29 29 30 30 32 32 33 34 35 34 31 22 22 19 19 17 19 27 23 25 22 21 21 18 15 18 17 14 15 17 19 22 25 27 18 16 17 16 15 15 17 21 19 19
27 28 28 28 29 30 31 32 33 34 34 34 31 23 22 21 19 18 19 26 26 23 22 24 22 19 20 17 16 16 16 17 19 15 19 19 21 17 17 16 11 14 17 16 16 19 22
27 27 28 28 30 31 32 32 33 34 34 33 25 22 20 20 10 16 22 28 24 21 22 20 22 20 22 21 19 16 13 18 22 18 18 21 28 21 18 13 17 15 11 18 16 19 19
27 28 29 29 30 31 32 32 33 34 34 29 20 18 20 13 13 19 26 26 24 22 19 20 20 22 21 21 20 19 17 18 14 15 11 17 23 25 19 18 14 13 16 17 14 16 16
27 28 28 29 30 31 32 32 33 33 33 22 19 20 15 13 19 22 25 22 22 23 21 21 19 21 21 21 21 20 20 18 16 19 18 17 21 26 23 20 20 18 20 16 17 19 17
28 28 28 29 30 31 31 32 32 32 29 21 17 17 14 16 23 25 25 24 23 23 23 21 22 19 19 21 22 21 20 17 18 21 19 15 23 26 26 22 17 15 13 16 16 16 16
28 28 28 29 30 31 31 31 31 32 28 19 17 18 17 17 17 20 23 24 24 21 23 23 24 22 23 25 22 23 22 20 22 22 23 15 22 24 27 23 17 13 12 11 14 19 18
28 28 28 28 29 30 30 30 30 31 26 18 18 19 18 22 22 20 21 23 24 24 21 20 21 21 24 26 26 25 25 25 24 20 20 18 25 23 26 25 21 19 13 13 17 16 18
28 27 28 28 28 28 29 30 30 30 24 17 19 19 19 20 21 22 23 24 23 23 23 24 24 27 26 26 25 26 26 26 24 22 23 22 24 21 23 21 16 18 17 13 15 17 20
27 27 27 27 27 28 28 28 28 28 22 17 18 18 20 22 23 23 23 23 23 23 22 22 25 27 28 24 30 34 32 33 31 27 25 25 23 21 23 19 15 20 18 15 16 15 19
26 26 26 27 26 27 27 27 27 26 23 17 18 19 21 25 25 24 24 24 25 25 26 25 25 25 24 32 32 27 27 29 28 28 21 23 22 22 22 20 23 19 20 18 18 20 22
26 26 26 26 26 27 26 26 26 25 24 18 19 19 20 25 25 28 26 27 28 26 27 28 26 24 29 28 26 28 28 27 28 27 22 20 20 24 25 25 26 19 17 17 19 22 24
26 26 26 25 25 25 25 25 25 25 23 19 18 19 19 23 25 23 25 25 28 29 30 27 26 26 24 24 25 29 29 28 29 26 21 21 21 24 23 27 27 24 21 23 18 29 25
26 25 25 24 24 25 24 24 24 24 23 20 19 19 19 22 22 21 24 24 22 23 27 27 28 27 24 26 28 29 30 25 28 26 25 26 26 27 27 30 29 22 26 22 22 27 23
25 25 24 24 23 23 23 23 23 23 23 21 19 19 19 21 25 22 22 23 22 22 24 24 25 24 26 27 28 27 28 26 27 24 24 25 27 29 28 31 35 23 22 21 22 20 16
25 24 24 23 23 23 23 23 22 22 22 20 19 20 20 21 22 22 25 27 24 21 21 21 22 21 21 24 25 25 27 25 26 29 23 28 24 27 26 29 25 25 26 26 24 20 15
Wind_Direction
316 315 314 314 312 311 309 306 303 302 303 303 302 302 301 300 296 296 295 294 292 287 285 285 289 299 315 302 303 314 40 22 15 33 23 37 30 307 307 314 300 13 139 206 225 236 106
316 316 314 313 313 311 310 307 305 302 302 301 302 301 301 300 297 296 296 293 290 288 283 283 291 300 309 298 310 7 43 29 6 3 21 0 296 273 260 304 323 293 245 240 223 107 27
320 317 315 313 312 312 311 310 307 304 302 301 301 301 300 300 298 296 295 292 289 285 283 290 296 307 300 293 314 18 22 1 327 338 15 300 290 271 270 284 309 294 299 296 334 358 10
321 318 316 314 314 313 312 310 308 306 304 302 301 300 299 298 297 295 294 293 291 289 299 305 302 308 293 298 334 351 339 327 308 301 286 282 295 287 283 277 300 319 338 324 2 357 9
323 322 319 314 314 313 312 311 309 307 304 303 301 300 299 297 295 294 293 293 299 310 314 310 303 305 294 314 308 322 337 326 326 297 280 276 295 304 296 302 304 317 346 337 329 359 17
325 323 320 317 313 312 312 311 309 306 304 303 302 300 298 296 294 293 292 301 303 303 298 298 295 296 296 304 308 315 320 344 313 307 299 303 303 305 306 316 312 327 334 350 346 1 7
327 324 322 320 312 310 308 309 307 304 303 302 301 299 297 295 292 292 298 300 290 287 287 279 291 289 289 282 307 301 304 317 308 302 308 301 303 313 313 316 316 318 325 337 351 352 2
328 324 321 317 309 307 306 306 305 303 301 300 300 298 296 293 289 287 305 303 305 287 279 273 261 265 259 283 288 295 308 299 289 291 305 303 300 294 298 304 308 313 312 318 326 348 357
326 325 321 317 312 309 307 306 305 303 300 299 298 297 295 292 285 290 294 306 303 309 285 275 276 275 267 285 280 282 289 295 298 293 296 300 311 331 305 302 313 315 320 326 336 342 358
326 324 321 319 314 311 308 306 304 301 299 297 296 294 294 292 289 288 285 294 301 312 279 278 280 283 280 282 282 285 280 301 298 297 298 295 291 290 297 297 313 315 338 334 331 340 339
327 325 322 319 315 311 309 306 303 300 298 295 292 292 290 287 276 281 285 287 301 307 268 289 286 290 290 271 298 278 276 285 295 300 305 299 307 303 300 303 318 315 323 322 329 335 339
327 325 325 320 317 314 311 307 304 301 299 296 292 290 288 291 287 281 284 285 297 273 261 282 292 290 291 272 281 301 278 288 297 292 292 291 297 297 296 295 302 299 319 325 328 329 326
328 324 325 322 319 316 314 311 308 305 302 298 292 287 284 289 281 287 281 283 263 260 278 275 282 289 290 282 272 284 276 272 281 288 288 294 291 293 291 289 298 304 311 310 313 318 323
327 325 322 320 319 317 315 313 311 308 305 300 292 287 289 280 284 284 274 264 257 268 265 281 285 286 285 289 276 277 279 275 282 290 295 294 293 303 306 287 293 299 309 307 311 319 321
327 324 325 322 322 320 317 315 312 310 307 302 294 292 284 277 271 274 256 255 261 266 277 277 283 286 282 285 291 277 279 283 284 279 287 296 298 310 310 305 297 297 299 317 318 319 311
326 328 326 324 322 321 319 317 315 312 309 304 295 286 281 283 269 264 253 257 265 273 280 286 275 286 277 280 280 284 292 304 284 278 279 290 287 300 314 302 296 291 315 306 314 308 308
325 327 325 324 323 321 320 319 317 315 311 304 298 281 288 279 267 255 255 261 266 275 287 284 283 280 282 282 284 283 289 295 306 306 293 289 285 287 300 295 291 289 303 311 310 309 315
326 323 325 326 324 322 321 321 320 319 315 317 293 274 289 276 258 261 260 266 274 273 282 284 288 283 282 287 285 283 281 280 304 306 296 288 287 281 281 290 293 288 298 305 297 295 310
325 323 324 325 323 322 322 322 322 322 322 309 289 282 284 286 260 260 265 267 272 274 277 279 279 284 287 283 282 279 278 283 293 299 295 292 279 277 276 289 299 297 307 305 304 304 302
325 323 322 322 322 321 322 322 323 322 317 312 292 274 275 274 278 269 267 267 268 279 278 276 275 281 280 275 276 277 275 281 289 293 292 293 283 278 274 281 304 291 301 319 317 304 304
325 324 322 322 322 324 324 324 323 323 317 307 295 280 275 264 266 273 273 271 269 269 277 281 274 277 277 273 275 273 273 277 284 294 298 291 283 284 278 282 285 289 296 307 309 312 311
323 325 324 326 325 326 327 327 325 325 316 310 289 282 281 273 272 269 270 269 270 271 272 271 272 275 275 273 277 276 277 276 280 287 291 291 286 292 287 287 285 284 289 297 308 308 306
322 323 322 325 325 326 328 328 330 330 324 312 301 293 281 275 271 268 268 269 271 275 276 273 279 276 274 276 278 272 274 269 272 281 286 286 284 283 280 286 292 285 286 292 301 313 309
319 321 321 320 326 326 326 329 330 331 330 311 306 295 280 270 269 268 270 271 269 273 271 276 282 277 279 285 280 280 277 272 274 273 284 283 283 281 278 280 279 292 291 294 299 306 305
313 316 315 319 321 323 324 328 329 329 325 313 308 298 287 273 272 268 269 270 272 274 273 274 280 286 288 285 277 274 272 272 272 272 274 279 279 276 273 274 280 286 292 299 304 300 306
305 309 312 315 320 322 322 324 326 326 323 313 310 306 294 281 273 275 272 273 270 270 271 274 279 286 291 283 274 267 267 269 269 271 272 274 276 270 275 272 274 280 288 295 303 289 304
303 304 306 308 315 318 314 317 322 325 323 317 306 308 297 284 282 276 273 272 277 276 273 276 280 277 283 274 269 267 266 272 267 267 266 263 267 265 267 267 273 282 281 290 295 296 311
302 299 299 303 310 310 309 314 317 319 321 319 307 312 298 286 280 282 279 272 274 277 274 280 279 277 275 268 269 268 267 269 269 271 269 266 263 263 267 266 265 287 288 291 302 313 323
298 297 294 298 301 302 306 309 309 309 312 316 304 299 296 286 282 289 280 272 271 278 282 285 279 281 281 273 271 271 268 271 268 263 276 266 272 270 270 271 283 288 283 284 294 303 317